Regional Weather Roundup
Issued by NWS

Home | Current Version | Previous Version | Text Only | Print | Product List | Glossary Off
Versions: 1 2 3 4 5 6 7 8 9 10 11 12 13 14 15 16 17 18 19 20 21 22 23 24 25 26 27 28 29 30 31 32 33 34 35 36 37 38 39 40 41 42 43 44 45 46 47 48 49 50

000
ASUS45 KABQ 240110
RWRNM
NEW MEXICO REGIONAL WEATHER ROUNDUP
NATIONAL WEATHER SERVICE ALBUQUERQUE NM
700 PM MDT THU MAR 23 2017

NOTE: "FAIR" MEANS FEW OR NO CLOUDS BELOW 12,000 FEET AGL WITH NO
       SIGNIFICANT WEATHER OR OBSTRUCTIONS TO VISION.

      THIS PRODUCT IS RELEASED AS TWO VERSIONS.  ONE VERSION NEAR
      THE TOP OF THE HOUR CONTAINING PRELIMINARY DATA FROM ALBUQUERQUE
      AND OTHER STATIONS.  A FINAL VERSION WITH ADDITIONAL DATA IS
      ISSUED ABOUT 10 MINUTES AFTER THE HOUR.

NMZ501-503-504-510>518-240200-
NORTHWEST PLATEAU/NORTHCENTRAL MOUNTAINS

CITY           SKY/WX    TMP DP  RH WIND       PRES   REMARKS
FARMINGTON     FAIR      42  32  67 W16G22    29.80S
LOS ALAMOS     CLOUDY    39  29  68 S8        29.79S WCI  33
SANTA FE       FAIR      39  37  92 SW9       29.79R WCI  33
TAOS             N/A     32  25  74 S6        29.79F WCI  26
ANGEL FIRE     FLURRIES  32  28  86 SW12G24   29.76F WCI  23

$$
NMZ402-403-502-505>509-240200-
WESTCENTRAL MOUNTAINS/SOUTHWEST MOUNTAINS

CITY           SKY/WX    TMP DP  RH WIND       PRES   REMARKS
GALLUP         FAIR      41  28  60 W23G29    29.89S
GRANTS         FAIR      35  29  77 W13G22    29.89F WCI  26
SILVER CITY    FAIR      47  24  39 W29       30.00R

$$
NMZ407-409-411-412-240200-
SOUTHERN DESERTS

CITY           SKY/WX    TMP DP  RH WIND       PRES   REMARKS
DEMING         FAIR      53  28  38 W15G28    29.99R
LAS CRUCES     FAIR      55  22  28 W39G47    29.96R
HOLLOMAN AFB   MOCLDY    59  18  20 W26G35    29.92R BLWGDUST
ALAMOGORDO     FAIR      59  16  18 W26G32    29.89R HAZE
T OR C         FAIR      52  20  28 W16G24    29.91R

$$
NMZ519>523-240200-
CENTRAL VALLEYS/CENTRAL HIGHLANDS

CITY           SKY/WX    TMP DP  RH WIND       PRES   REMARKS
ALBUQUERQUE    MOCLDY    48  26  42 W21G35    29.82R
DOUBLE EAGLE   MOCLDY    45  25  45 W29       29.82R
MORIARTY ARPT  DRIZZLE   41  35  77 SW12      29.82F
CLINES CORNERS FLURRIES  34  32  92 W21       29.79F WCI  22
BELEN          FAIR      48  22  36 W28G35    29.84S
SOCORRO        MOCLDY    52  21  30 N6        29.87R

$$
NMZ524>526-539-540-240200-
SOUTHCENTRAL MOUNTAINS

CITY           SKY/WX    TMP DP  RH WIND       PRES   REMARKS
RUIDOSO        MOCLDY    45  18  33 W26G33    29.87R

$$
NMZ527>531-240200-
NORTHEAST HIGHLANDS/NORTHEAST PLAINS

CITY           SKY/WX    TMP DP  RH WIND       PRES   REMARKS
LAS VEGAS      CLOUDY    45  26  47 W20       29.66F
RATON          FAIR      58  19  22 SW16G28   29.57R
CLAYTON        FAIR      71  20  14 SW13      29.51S

$$
NMZ532>537-240200-
EASTCENTRAL PLAINS

CITY           SKY/WX    TMP DP  RH WIND       PRES   REMARKS
SANTA ROSA     FAIR      50  31  48 W22G35    29.66R
TUCUMCARI      FAIR      62  33  33 W49G60    29.56R
CANNON AFB     PTCLDY    61  36  38 W41G56    29.62R BLWGDUST
CLOVIS AIRPORT FAIR      64  34  32 W37G47    29.61R

$$
NMZ028-029-538-240200-
SOUTHEAST PLAINS

CITY           SKY/WX    TMP DP  RH WIND       PRES   REMARKS
ROSWELL        CLOUDY    64  23  21 W37G46    29.72R
ARTESIA        FAIR      68  27  21 W26G40    29.71R
CARLSBAD       CLOUDY    69  26  20 MISG      29.64R
HOBBS          FAIR      73  30  20 W26G37    29.72R HAZE


$$




USA.gov is the U.S. government's official web portal to all federal, state and local government web resources and services.